Simultaneous Nadir Overpasses (SNOs) Predictions

Prediction of SNOs between NPP and TERRA Satellite Orbit:

Table of predicted SNOs for the next 14.0 days since TLE Epoch: 11/22/2014
Index Date (NPP) Time (NPP) Lat,Lon (NPP) SZA (NPP ) Date (TERRA) Time (TERRA) Lat,Lon (TERRA) SZA (TERRA ) Distance(km) Time Diff (sec)
1 11/23/2014 21:09:36 -69.29, 42.22 90.34 11/23/2014 21:10:36 -69.31, 42.25 90.32 2.13 60
2 11/23/2014 22:00:20 69.18,-150.31 89.56 11/23/2014 22:00:04 69.15,-150.32 89.53 3.23 16
3 11/23/2014 22:50:52 -68.56, 17.85 91.05 11/23/2014 22:49:42 -68.60, 16.62 91.03 50.14 70
4 11/26/2014 13:26:28 -69.28, 158.00 89.83 11/26/2014 13:27:07 -69.26, 158.06 89.85 3.29 39
5 11/26/2014 14:17:11 69.12, -34.46 90.02 11/26/2014 14:16:35 69.10, -34.51 89.99 3.12 36
6 11/29/2014 04:52:50 69.96, 105.47 91.32 11/29/2014 04:53:59 69.83, 107.06 91.21 62.67 69
7 11/29/2014 05:43:20 -69.23, -86.16 89.40 11/29/2014 05:43:38 -69.23, -86.11 89.40 1.93 18
8 11/29/2014 06:34:03 69.06, 81.38 90.44 11/29/2014 06:33:06 69.06, 81.31 90.43 2.70 57
9 12/01/2014 21:09:30 69.28,-137.78 91.07 12/01/2014 21:10:39 69.25,-137.83 91.05 3.48 69
10 12/01/2014 22:00:12 -69.19, 29.67 89.02 12/01/2014 22:00:09 -69.16, 29.67 89.05 3.38 3
11 12/01/2014 22:50:51 68.81,-162.51 90.62 12/01/2014 22:49:39 68.87,-163.05 90.67 22.97 72
12 12/04/2014 13:26:22 69.25, -21.97 91.41 12/04/2014 13:27:08 69.25, -21.96 91.42 0.41 46
13 12/04/2014 14:17:04 -69.15, 145.48
